Hamilton, OH

5:30 PM EDT on October 17, 2017 (GMT -0400)
Butler County Regional

Weather History for KHAO - June, 2013

Change the Weather History Date:

Saturday, June 1, 2013

  Actual Average (KLUK) Record (KLUK)
Temperature  
Mean Temperature 74 °F -  
Max Temperature 82 °F 79 °F 93 °F (1988)
Min Temperature 69 °F 57 °F 39 °F (1966)
Cooling Degree Days 10    
Growing Degree Days 24 (Base 50)    
Moisture  
Dew Point 67 °F    
Average Humidity 78    
Maximum Humidity 93    
Minimum Humidity 62    
Precipitation  
Precipitation 0.00 in - - ()
Sea Level Pressure  
Sea Level Pressure 29.88 in    
Wind  
Wind Speed 4 mph (SSW)    
Max Wind Speed 13 mph    
Max Gust Speed 24 mph    
Visibility 10 miles    
Events Rain    
Averages and records for this station are not official NWS values.
T = Trace of Precipitation, MM = Missing Value Source: NWS Daily Summary

Daily Weather History Graph

Daily Weather History Graph

Search for Another Location

Airport or City:

Trip Planner

Search our weather history database for the weather conditions in past years. The results will help you decide how hot, cold, wet, or windy it might be!

Date:

Astronomy

Jun. 01, 2013 Rise Set
Actual Time 6:13 AM EDT 8:59 PM EDT
Civil Twilight 5:41 AM EDT 9:30 PM EDT
Nautical Twilight 5:01 AM EDT 10:10 PM EDT
Astronomical Twilight 4:16 AM EDT 10:56 PM EDT
Moon 2:06 AM EDT (6/1) 2:29 PM EDT (6/1)
Length of Visible Light 15h 49m
Length of Day
14h 45m
Last Quarter, 41% of the Moon is Illuminated
Jun 1
Last Quarter
Jun 8
New
Jun 16
First Quarter
Jun 23
Full
Jun 30
Last Quarter

Hourly Weather History & Observations

Time (EDT) Temp. Heat Index Dew Point Humidity Pressure Visibility Wind Dir Wind Speed Gust Speed Precip Events Conditions
12:53 AM 70.0 °F - 68.0 °F 93% 29.96 in 9.0 mi Calm Calm - N/A   Clear
1:53 AM 70.0 °F - 66.9 °F 90% 29.94 in 10.0 mi Variable 3.5 mph - N/A   Clear
2:53 AM 71.1 °F - 66.9 °F 87% 29.94 in 10.0 mi Calm Calm - N/A   Mostly Cloudy
3:53 AM 72.0 °F - 66.0 °F 81% 29.91 in 10.0 mi South 4.6 mph - N/A   Mostly Cloudy
4:53 AM 70.0 °F - 66.0 °F 87% 29.90 in 10.0 mi SE 3.5 mph - N/A   Mostly Cloudy
5:53 AM 69.1 °F - 64.9 °F 87% 29.89 in 10.0 mi Variable 3.5 mph - N/A   Scattered Clouds
6:53 AM 70.0 °F - 64.9 °F 84% 29.90 in 10.0 mi Calm Calm - N/A   Mostly Cloudy
7:46 AM 71.6 °F - 64.4 °F 78% 29.92 in 10.0 mi Variable 3.5 mph - N/A   Overcast
7:53 AM 73.0 °F - 66.0 °F 79% 29.91 in 10.0 mi Variable 3.5 mph - N/A   Mostly Cloudy
8:07 AM 73.4 °F - 66.2 °F 78% 29.92 in 10.0 mi Variable 5.8 mph - N/A   Scattered Clouds
8:53 AM 72.0 °F - 66.9 °F 84% 29.91 in 10.0 mi WSW 4.6 mph - N/A   Partly Cloudy
9:53 AM 72.0 °F - 66.9 °F 84% 29.91 in 10.0 mi SSW 4.6 mph - N/A   Clear
10:53 AM 75.0 °F - 66.9 °F 76% 29.90 in 10.0 mi SSW 6.9 mph - N/A   Clear
11:53 AM 75.0 °F - 66.9 °F 76% 29.91 in 10.0 mi SSW 9.2 mph 16.1 mph 0.00 in Rain Light Rain
12:53 PM 77.0 °F - 66.9 °F 71% 29.90 in 10.0 mi SSW 12.7 mph 21.9 mph 0.00 in   Partly Cloudy
1:53 PM 79.0 °F - 66.0 °F 64% 29.89 in 10.0 mi SSW 12.7 mph 18.4 mph N/A   Clear
2:53 PM 79.0 °F - 66.0 °F 64% 29.88 in 10.0 mi SW 11.5 mph 18.4 mph N/A   Partly Cloudy
3:53 PM 80.1 °F 82.1 °F 66.0 °F 62% 29.86 in 10.0 mi SSW 11.5 mph 19.6 mph N/A   Overcast
4:53 PM 79.0 °F - 66.0 °F 64% 29.85 in 10.0 mi SW 10.4 mph 24.2 mph N/A   Scattered Clouds
5:53 PM 78.1 °F - 66.0 °F 66% 29.83 in 10.0 mi Variable 6.9 mph 20.7 mph N/A   Partly Cloudy
6:53 PM 78.1 °F - 66.9 °F 68% 29.80 in 10.0 mi South 8.1 mph - 0.00 in Rain Light Rain
7:53 PM 78.1 °F - 69.1 °F 74% 29.80 in 10.0 mi SW 4.6 mph - 0.00 in   Scattered Clouds
8:53 PM 77.0 °F - 68.0 °F 74% 29.81 in 10.0 mi SW 6.9 mph - N/A   Overcast
9:53 PM 73.9 °F - 68.0 °F 82% 29.81 in 10.0 mi Variable 4.6 mph - N/A   Partly Cloudy
10:53 PM 73.0 °F - 68.0 °F 84% 29.81 in 10.0 mi SSW 5.8 mph - N/A   Clear
11:53 PM 72.0 °F - 66.0 °F 81% 29.82 in 10.0 mi SW 8.1 mph 17.3 mph N/A   Clear